OBJECT A, 60012

Orbit data source: Space-Track

You're viewing an Uncataloged Satellite

Recently launched and/or uncataloged satellites may have evolving metadata. Metadata may include but not limited to: Owner, Maufacturer, Bus, Motor, and Mission.

OBJECT A, 60012 is a Chinese satellite in SSO that was launched on Thu, 06 Jun 2024 UTC via a GUSHENXING 1 launch vehicle from the Jiuquan Satellite Launch Center, China (JSC). Unknown objects in Earth's orbit typically refer to objects detected orbiting the Earth but have not yet been identified or cataloged. These objects could be anything from previously untracked satellites, spent rocket stages, debris from satellite collisions, or even natural meteoroids temporarily captured by Earth's gravity.

Loading next visibility...
Identifier
60012, 2024-110A
Orbit
SSO
Country
Flag of CNCN / PRC
Related business
Flag of CNBeijing Mumei Xingkong Keji YG (CN)
Manufacturer
Changguang WJ
Mission
Operational Commercial Imaging
Bus & Motor
JL1GF4, Unknown motor
Mass
~112 kg wet, ~112 kg dry
Launch date (UTC)
2024-06-06 (1 year ago)
Launch vehicle
GUSHENXING 1
Launch site
Jiuquan Satellite Launch Center, China (JSC)
Object type
Unknown
Shape & HBR
Box, 0.5 m
Radar Cross Section
1.500 m², Medium (>0.1 m² and < 1m²)

Expand to show TLE details & history
Last TLE update: 8 hours ago

TLE from 8 hours ago
0 OBJECT A
1 60012U 24110A   25297.75365244  .00013667  00000-0  73323-3 0  9992
2 60012  97.5792  26.5520 0013535 167.0033 193.1550 15.14996670 76349
Epoch: 2025-10-24T18:05Z
TLE epoch observation values (Epoch: 2025-10-24T18:05:15.570Z)
Latitude
-0.00008°
Longitude
81.84311°
Altitude
533.163 km
Speed
7.591 km/s
True Right ascension
01h 46m 12s
True Declination
0° 00' 00"
Sunlit
Object was in full shadow at epoch
Visualization orbit readout
Latitude
Unknown
Longitude
Unknown
Altitude
Unknown
Speed
Unknown
Apparent Right ascension
Unknown
Apparent Declination
Unknown
Sunlit
N/A
Visualization observer readout
Local Sidereal Time
21:11:44
Azimuth
Unknown
Elevation
Unknown
Doppler factor
Unknown
Orbital elements
Apogee altitude
527.303 km
Perigee altitude
508.635 km
Semi-major axis
6,896.106 km
Eccentricity
0.00135
Inclination
97.5792°
RAAN
26.552°
Arg. of periapsis
167.0033°
True anomaly
193.11976°
Mean anomaly
193.155°
Eccentric anomaly
193.13737°
Mean motion
3.78998 °/min
Orbital period
94.99 mins
BSTAR
0.00073323
Loading maneuver chart data...
Computing Atmospheric mass density...
Loading historical data...
Loading historical data...
Loading historical data...
Loading historical data...
Loading historical data...
Loading historical data...
Loading historical data...
Other satellites on launch #110 in the year 2024 (2024-06-06 UTC)

Documentation

Showing up to 5 results
|